Location: *
(47.7167°N, 1.7333°W)
Time: 18:48:39
(UTC+00:00)

Cosmos 1825 - Pass Details

Date: 09 April 2020
Orbit: 502 x 509 km, 82.5° (Epoch: 02 June)

Event Time Altitude Azimuth Distance (km) Brightness Sun altitude
Rises 21:35:25 0° 350° (N) 2,629 6.7 -24.9°
Reaches altitude 10° 21:37:33 10° 350° (N) 1,737 5.6 -25.1°
Enters shadow 21:40:18 46° 348° (NNW) 693 3.1 -25.4°
